Weather History for Pinedale, WY

Change the Weather History Date:

Sunday, March 3, 2013

  Actual Average (KBPI) Record (KBPI)
Temperature  
Mean Temperature 34 °F 21 °F  
Max Temperature 41 °F 35 °F 55 °F (1994)
Min Temperature 26 °F 7 °F -12 °F (2002)
Degree Days  
Heating Degree Days 32 44  
Month to date heating degree days 133  
Since 1 July heating degree days 7656  
Cooling Degree Days 0 0  
Month to date cooling degree days 0  
Year to date cooling degree days 0  
Moisture  
Dew Point 26 °F    
Average Humidity 81    
Maximum Humidity 100    
Minimum Humidity 55    
Precipitation  
Precipitation 0.00 in 0.01 in 0.06 in (1995)
Month to date precipitation 0.03  
Year to date precipitation 0.69  
Sea Level Pressure  
Sea Level Pressure 29.88 in    
Wind  
Wind Speed 6 mph (WNW)    
Max Wind Speed 23 mph    
Max Gust Speed 32 mph    
Visibility 10 miles    
Events Snow    
T = Trace of Precipitation, MM = Missing Value Source: NWS Daily Summary

Daily Weather History Graph

Daily Weather History Graph

Search for Another Location

Airport:

Trip Planner

Search our weather history database for the weather conditions in past years. The results will help you decide how hot, cold, wet, or windy it might be!

Date:

Astronomy

Mar. 03, 2013 Rise Set
Actual Time 6:51 AM MST 6:11 PM MST
Civil Twilight 6:22 AM MST 6:39 PM MST
Nautical Twilight 5:50 AM MST 7:12 PM MST
Astronomical Twilight 5:17 AM MST 7:45 PM MST
Moon 12:02 AM MST (3/3) 9:59 AM MST (3/3)
Length of Visible Light 12h 17m
Length of Day
11h 20m
Waning Gibbous, 63% of the Moon is Illuminated
Mar 3
Waning Gibbous
Mar 4
Last Quarter
Mar 11
New
Mar 19
First Quarter
Mar 27
Full

Hourly Weather History & Observations

Time (MST) Temp. Windchill Dew Point Humidity Pressure Visibility Wind Dir Wind Speed Gust Speed Precip Events Conditions
12:15 AM 26.6 °F 21.2 °F 26.6 °F 100% 30.08 in 10.0 mi West 4.6 mph - N/A   Scattered Clouds
12:35 AM 26.6 °F 21.2 °F 24.8 °F 93% 30.07 in 10.0 mi NW 4.6 mph - N/A   Scattered Clouds
1:15 AM 26.6 °F - 26.6 °F 100% 30.05 in 10.0 mi Calm Calm - N/A   Clear
1:35 AM 26.6 °F 21.2 °F 24.8 °F 93% 30.04 in 10.0 mi NW 4.6 mph - N/A   Scattered Clouds
1:55 AM 26.6 °F 21.2 °F 24.8 °F 93% 30.03 in 10.0 mi NNW 4.6 mph - N/A   Scattered Clouds
2:15 AM 26.6 °F 22.6 °F 24.8 °F 93% 30.03 in 10.0 mi WNW 3.5 mph - N/A   Scattered Clouds
2:35 AM 26.6 °F 20.0 °F 26.6 °F 100% 30.01 in 10.0 mi WNW 5.8 mph - N/A   Clear
2:55 AM 26.6 °F 22.6 °F 26.6 °F 100% 30.00 in 10.0 mi NW 3.5 mph - N/A   Scattered Clouds
3:15 AM 26.6 °F 22.6 °F 24.8 °F 93% 29.99 in 10.0 mi South 3.5 mph - N/A   Scattered Clouds
3:35 AM 26.6 °F - 24.8 °F 93% 29.98 in 10.0 mi Calm Calm - N/A   Scattered Clouds
3:55 AM 26.6 °F 20.0 °F 24.8 °F 93% 29.97 in 10.0 mi NW 5.8 mph - N/A   Mostly Cloudy
4:15 AM 26.6 °F - 26.6 °F 100% 29.97 in 10.0 mi Calm Calm - N/A   Overcast
4:35 AM 26.6 °F - 26.6 °F 100% 29.97 in 10.0 mi Calm Calm - N/A   Overcast
4:55 AM 28.4 °F 23.3 °F 26.6 °F 93% 29.97 in 10.0 mi WNW 4.6 mph - N/A   Overcast
5:15 AM 28.4 °F - 26.6 °F 93% 29.97 in 10.0 mi Calm Calm - N/A   Overcast
5:35 AM 28.4 °F 24.6 °F 26.6 °F 93% 29.96 in 10.0 mi West 3.5 mph - N/A   Overcast
5:55 AM 28.4 °F 24.6 °F 26.6 °F 93% 29.95 in 10.0 mi NW 3.5 mph - N/A   Overcast
6:15 AM 28.4 °F - 26.6 °F 93% 29.95 in 10.0 mi Calm Calm - N/A   Overcast
6:35 AM 28.4 °F - 28.4 °F 100% 29.95 in 7.0 mi Calm Calm - N/A Snow Light Snow
6:55 AM 28.4 °F - 28.4 °F 100% 29.95 in 10.0 mi Calm Calm - N/A   Overcast
7:15 AM 28.4 °F - 28.4 °F 100% 29.94 in 10.0 mi Calm Calm - N/A   Overcast
7:35 AM 28.4 °F - 28.4 °F 100% 29.93 in 10.0 mi Calm Calm - N/A   Mostly Cloudy
7:55 AM 30.2 °F 25.4 °F 28.4 °F 93% 29.93 in 10.0 mi NE 4.6 mph - N/A   Mostly Cloudy
8:15 AM 30.2 °F - 28.4 °F 93% 29.92 in 10.0 mi Calm Calm - N/A   Mostly Cloudy
8:35 AM 30.2 °F 26.7 °F 28.4 °F 93% 29.92 in 10.0 mi SE 3.5 mph - N/A   Mostly Cloudy
8:55 AM 30.2 °F 26.7 °F 28.4 °F 93% 29.91 in 10.0 mi East 3.5 mph - N/A   Overcast
9:15 AM 32.0 °F 27.5 °F 28.4 °F 87% 29.90 in 10.0 mi East 4.6 mph - N/A   Overcast
9:35 AM 32.0 °F 28.7 °F 28.4 °F 87% 29.90 in 10.0 mi East 3.5 mph - N/A   Overcast
9:55 AM 33.8 °F 29.6 °F 30.2 °F 87% 29.89 in 10.0 mi East 4.6 mph - N/A   Overcast
10:15 AM 33.8 °F 29.6 °F 30.2 °F 87% 29.88 in 10.0 mi East 4.6 mph - N/A   Overcast
10:35 AM 33.8 °F 28.6 °F 30.2 °F 87% 29.87 in 10.0 mi East 5.8 mph - N/A   Mostly Cloudy
10:55 AM 35.6 °F 31.7 °F 30.2 °F 81% 29.86 in 10.0 mi East 4.6 mph - N/A   Scattered Clouds
11:15 AM 35.6 °F 31.7 °F 30.2 °F 81% 29.85 in 10.0 mi SE 4.6 mph - N/A   Mostly Cloudy
11:35 AM 37.4 °F 31.4 °F 30.2 °F 75% 29.84 in 10.0 mi South 8.1 mph - N/A   Overcast
11:55 AM 35.6 °F 29.9 °F 30.2 °F 81% 29.84 in 10.0 mi SSE 6.9 mph - N/A   Overcast
12:15 PM 37.4 °F 32.1 °F 30.2 °F 75% 29.83 in 10.0 mi SSW 6.9 mph - N/A   Overcast
12:35 PM 37.4 °F 32.1 °F 30.2 °F 75% 29.82 in 10.0 mi SW 6.9 mph - N/A   Overcast
12:55 PM 37.4 °F 34.9 °F 30.2 °F 75% 29.80 in 10.0 mi SSW 3.5 mph - N/A   Overcast
1:15 PM 37.4 °F 31.4 °F 30.2 °F 75% 29.80 in 10.0 mi West 8.1 mph - N/A   Overcast
1:35 PM 37.4 °F 28.9 °F 28.4 °F 70% 29.79 in 10.0 mi West 13.8 mph - N/A   Mostly Cloudy
1:55 PM 39.2 °F 30.8 °F 30.2 °F 70% 29.77 in 10.0 mi West 15.0 mph - N/A   Scattered Clouds
2:15 PM 37.4 °F 28.2 °F 28.4 °F 70% 29.77 in 10.0 mi West 16.1 mph 26.5 mph N/A   Mostly Cloudy
2:35 PM 37.4 °F 27.5 °F 26.6 °F 65% 29.77 in 10.0 mi West 18.4 mph 29.9 mph N/A   Scattered Clouds
2:55 PM 39.2 °F 30.2 °F 28.4 °F 65% 29.78 in 10.0 mi West 17.3 mph 24.2 mph N/A   Scattered Clouds
3:15 PM 41.0 °F 32.2 °F 28.4 °F 61% 29.78 in 10.0 mi West 18.4 mph - N/A   Scattered Clouds
3:35 PM 39.2 °F 30.5 °F 26.6 °F 61% 29.78 in 10.0 mi West 16.1 mph 21.9 mph N/A   Scattered Clouds
3:55 PM 37.4 °F 28.2 °F 26.6 °F 65% 29.79 in 10.0 mi West 16.1 mph 21.9 mph N/A   Scattered Clouds
4:15 PM 37.4 °F 28.2 °F 26.6 °F 65% 29.79 in 10.0 mi West 16.1 mph 23.0 mph N/A   Overcast
4:35 PM 37.4 °F 29.3 °F 26.6 °F 65% 29.79 in 10.0 mi West 12.7 mph 21.9 mph N/A   Mostly Cloudy
4:55 PM 35.6 °F 27.1 °F 26.6 °F 70% 29.79 in 10.0 mi WNW 12.7 mph - N/A   Mostly Cloudy
5:35 PM 35.6 °F 29.9 °F 26.6 °F 70% 29.79 in 10.0 mi WNW 6.9 mph - N/A   Mostly Cloudy
5:55 PM 33.8 °F 24.8 °F 24.8 °F 70% 29.80 in 10.0 mi West 12.7 mph - N/A   Mostly Cloudy
6:15 PM 32.0 °F 25.6 °F 23.0 °F 69% 29.80 in 10.0 mi West 6.9 mph 17.3 mph N/A   Scattered Clouds
6:35 PM 32.0 °F 26.4 °F 23.0 °F 69% 29.80 in 10.0 mi West 5.8 mph - N/A   Clear
6:55 PM 32.0 °F 25.6 °F 23.0 °F 69% 29.80 in 10.0 mi WNW 6.9 mph - N/A   Scattered Clouds
7:15 PM 32.0 °F 24.8 °F 23.0 °F 69% 29.81 in 10.0 mi NW 8.1 mph - N/A   Mostly Cloudy
7:35 PM 32.0 °F 21.6 °F 21.2 °F 64% 29.81 in 10.0 mi WNW 15.0 mph - N/A   Mostly Cloudy
7:55 PM 32.0 °F 19.2 °F 19.4 °F 60% 29.80 in 10.0 mi West 23.0 mph 32.2 mph N/A   Mostly Cloudy
8:15 PM 32.0 °F 20.1 °F 19.4 °F 60% 29.80 in 10.0 mi West 19.6 mph 25.3 mph N/A   Mostly Cloudy
8:35 PM 32.0 °F 23.0 °F 19.4 °F 60% 29.80 in 10.0 mi West 11.5 mph 19.6 mph N/A   Mostly Cloudy
8:55 PM 32.0 °F 24.2 °F 17.6 °F 55% 29.81 in 10.0 mi WNW 9.2 mph - N/A   Scattered Clouds
9:15 PM 32.0 °F 24.2 °F 19.4 °F 60% 29.82 in 10.0 mi WNW 9.2 mph - N/A   Mostly Cloudy
9:35 PM 30.2 °F 24.3 °F 23.0 °F 75% 29.82 in 10.0 mi North 5.8 mph - N/A   Overcast
9:55 PM 28.4 °F 17.0 °F 24.8 °F 86% 29.82 in 5.0 mi NNW 15.0 mph 20.7 mph N/A Snow Light Snow
10:15 PM 28.4 °F 17.5 °F 23.0 °F 80% 29.82 in 10.0 mi NW 13.8 mph - N/A   Mostly Cloudy
10:35 PM 26.6 °F 14.7 °F 24.8 °F 93% 29.82 in 10.0 mi NW 15.0 mph - N/A Snow Light Snow
10:55 PM 26.6 °F 15.2 °F 23.0 °F 86% 29.83 in 10.0 mi NW 13.8 mph - N/A   Mostly Cloudy
11:15 PM 26.6 °F 18.2 °F 21.2 °F 80% 29.84 in 10.0 mi NW 8.1 mph - N/A   Mostly Cloudy
11:35 PM 26.6 °F 13.8 °F 21.2 °F 80% 29.85 in 10.0 mi NNW 17.3 mph 20.7 mph N/A Snow Light Snow
11:55 PM 26.6 °F 16.2 °F 19.4 °F 74% 29.85 in 10.0 mi NNW 11.5 mph - N/A   Overcast